Miscellaneous Local Product
Issued by NWS Hastings, NE

Home | Current Version | Previous Version | Graphics & Text | Print | Product List | Glossary On
Versions: 1 2 3 4 5 6 7 8 9 10 11 12 13 14 15 16 17 18 19 20 21 22 23 24 25 26 27 28 29 30 31 32 33 34 35 36 37 38 39 40 41 42 43 44 45 46 47 48 49 50
000
AXUS43 KGID 240602
MISGRI

GID CWA HOURLY WEATHER ROUNDUP
NATIONAL WEATHER SERVICE HASTINGS NE
1200 AM CST FRI FEB 24 2017

NOTE: "FAIR" INDICATES FEW OR NO CLOUDS BELOW 12,000 FEET WITH NO
SIGNIFICANT WEATHER AND/OR OBSTRUCTIONS TO VISIBILITY.

...SOUTH CENTRAL NEBRASKA...

CITY           SKY/WX    TMP DP  RH WIND       PRES   REMARKS
GRAND ISLAND   FRZ RAIN  29  28  96 N17       29.70F FOG     WCI  17
HASTINGS       FRZ RAIN  30  27  88 N21       29.69F FOG     WCI  17
KEARNEY        CLOUDY    28  23  80 N17G25    29.72S WCI  16
ORD            LGT SNOW  26  21  81 N18G29    29.75F WCI  13
YORK           CLOUDY    32  28  86 N22G28    29.66S WCI  19
AURORA         MIX PCPN  30  29  95 N18G26    29.68S WCI  18
LEXINGTON      CLOUDY    27  24  88 N21       29.76S FOG     WCI  13
HOLDREGE       CLOUDY    28  26  93 N14G21    29.72S FOG     WCI  17
HEBRON         CLOUDY    32  31  95 N17       29.64S WCI  21

...NEBRASKA PANHANDLE...

CITY           SKY/WX    TMP DP  RH WIND       PRES   REMARKS
CHADRON        LGT SNOW  24  20  84 NE13      29.96S FOG     WCI  12
ALLIANCE       LGT SNOW  20  18  92 N13       29.87S FOG     WCI   7
SCOTTSBLUFF    LGT SNOW  23  17  78 NE18      29.89F WCI   9
SIDNEY         CLOUDY    20  17  88 N20       29.83R WCI   4

...WESTERN AND NORTH CENTRAL NEBRASKA...

CITY           SKY/WX    TMP DP  RH WIND       PRES   REMARKS
VALENTINE      CLOUDY    23  19  85 N18G29    29.89S FOG     WCI   9
AINSWORTH        N/A     23  23  97 N25       29.85S WCI   7
ONEILL         CLOUDY    26  25  96 N22G32    29.82S WCI  12
BROKEN BOW     LGT SNOW  25  23  92 N23G35    29.75S FOG     WCI  10
IMPERIAL       LGT SNOW  23  19  85 N18       29.82S FOG     WCI   9
NORTH PLATTE   LGT SNOW  24  19  81 N22G33    29.79S WCI   9
MCCOOK         CLOUDY    27  24  89 N16G25    29.78R WCI  15

...EASTERN NEBRASKA...

CITY           SKY/WX    TMP DP  RH WIND       PRES   REMARKS
NORFOLK        LGT SNOW  28  25  88 N24       29.71R FOG     WCI  14
SO SIOUX CITY  SNOW      32  29  88 NE24G32   29.67F VSB 1/4 WCI  19
TEKAMAH        LGT SNOW  32  31  96 N24       29.64F VSB 1   WCI  19
COLUMBUS       CLOUDY    30  25  80 N17       29.69S WCI  18
ALBION         CLOUDY    29  25  84 N17G23    29.72S WCI  17
OMAHA EPPLEY   LGT SNOW  33  29  85 N13G24    29.61F FOG     WCI  24
OFFUTT AFB     FLURRIES  32  32 100 NE18G25   29.56F WCI  20
MILLARD        FLURRIES  35  33  93 NE10G20   29.57F WCI  27
LINCOLN        CLOUDY    33  31  92 N18       29.62R WCI  22
NEBRASKA CITY  CLOUDY    34  34 100 NE22G28   29.53F WCI  22
BEATRICE       CLOUDY    34  34  99 N14       29.58R WCI  25
FALLS CITY     MOCLDY    40  40 100 N15G23    29.50F WCI  32

...NORTHERN KANSAS...

CITY           SKY/WX    TMP DP  RH WIND       PRES   REMARKS
GOODLAND       CLOUDY    24  20  84 N25G31    29.76S WCI   8
HILL CITY      CLOUDY    30  27  86 N14G25    29.76R WCI  20
NORTON         CLOUDY    28  21  74 NW16      29.75R WCI  17
PHILLIPSBURG   CLOUDY    32  28  86 NW15      29.74R WCI  22
SMITH CENTER   CLOUDY    30  28  93 N16G23    29.71R WCI  19
HAYS           CLOUDY    33  27  78 N21G26    29.71R WCI  21
RUSSELL        CLOUDY    33  29  85 NW16      29.69R WCI  23
CONCORDIA      CLOUDY    33  32  96 NW17G28   29.63R WCI  22
SALINA         CLOUDY    39  33  79 NW22G28   29.64R WCI  29
TOPEKA         CLOUDY    43  40  89 N13       29.50S



USA.gov is the U.S. government's official web portal to all federal, state and local government web resources and services.